Home > Weather > Battambang > Past weeks

Flag for Cambodia Weather for the Past 2 Weeks in Battambang, Cambodia

Now
86 °F

Passing clouds.


Feels Like: 92 °F
Forecast: 76 / 97 °F
Wind: 2 mph from South

Location: Siemreap

Current Time: Feb 14, 2016 at 8:02:23 PM

Latest Report: Feb 14, 2016 at 7:30 PM


Visibility: 6 mi

Pressure: 29.80 "Hg

Humidity: 62%

Dew point: 72 °F

Location of BattambangLocation

Historic Weather in Battambang — Graph

°F

Battambang Temperature Yesterday

Maximum temperature yesterday: 93 °F (at 1:00 PM)
Minimum temperature yesterday: 72 °F (at 7:30 AM)
Average temperature yesterday: 85 °F

High & Low Weather Summary for the Past Weeks

 TemperatureHumidityPressure
High95 °F (Feb 11, 3:00 PM)100% (Jan 31, 7:30 AM)30.15 "Hg (Jan 31, 7:30 AM)
Low59 °F (Feb 7, 7:30 AM)14% (Feb 10, 2:30 PM)29.74 "Hg (Jan 31, 3:30 PM)
Average81 °F54%29.87 "Hg
* Reported Jan 30 7:00 PM — Feb 14 7:00 PM, Battambang, Weather by CustomWeather, © 2016

Note: Actual official high and low records may vary slightly from our data, if they occured in-between our weather recording intervals... More about our weather records

Advertising

Battambang Weather History for the Previous 24 Hours

 ConditionsComfort  
Time TempWeatherWind HumidityBarometerVisibility
7:00 PM
Sun, Feb 14
86 °FPassing clouds.2 mph62%29.80 "Hg6 mi
6:30 PM88 °FPassing clouds.3 mph55%29.80 "Hg6 mi
6:00 PM90 °FPassing clouds.5 mph49%29.80 "HgN/A
5:30 PM90 °FPassing clouds.7 mph49%29.80 "HgN/A
5:00 PM91 °FPassing clouds.12 mph46%29.77 "HgN/A
4:30 PM93 °FPassing clouds.9 mph41%29.77 "HgN/A
4:00 PM93 °FPassing clouds.9 mph41%29.77 "HgN/A
3:30 PM93 °FPassing clouds.9 mph41%29.77 "HgN/A
2:30 PM93 °FScattered clouds.5 mph44%29.77 "HgN/A
2:00 PM95 °FScattered clouds.5 mph39%29.80 "HgN/A
1:30 PM93 °FScattered clouds.7 mph41%29.80 "HgN/A
1:00 PM93 °FScattered clouds.2 mph41%29.83 "HgN/A
12:30 PM93 °FScattered clouds.5 mph44%29.83 "HgN/A
12:00 PM91 °FPassing clouds.2 mph49%29.86 "HgN/A
11:30 AM90 °FPassing clouds.3 mph52%29.89 "HgN/A
11:00 AM88 °FPassing clouds.3 mph59%29.89 "HgN/A
10:30 AM86 °FPassing clouds.5 mph66%29.89 "HgN/A
10:00 AM84 °FPassing clouds.7 mph70%29.89 "Hg5 mi
9:30 AM82 °FPassing clouds.5 mph74%29.89 "Hg5 mi
9:00 AM81 °FPassing clouds.No wind79%29.89 "Hg5 mi
8:30 AM77 °FFog.2 mph89%29.89 "Hg3 mi
8:00 AM75 °FFog.2 mph94%29.86 "Hg2 mi
7:30 AM73 °FFog.No wind100%29.86 "Hg2 mi
1:00 AM77 °FPassing clouds.No wind79%29.80 "Hg4 mi
12:30 AM77 °FPassing clouds.No wind79%29.80 "Hg4 mi
12:00 AM79 °FPassing clouds.5 mph79%29.80 "Hg4 mi
11:30 PM
Sat, Feb 13
79 °FPassing clouds.3 mph79%29.80 "Hg4 mi
11:00 PM79 °FPassing clouds.1 mph84%29.80 "Hg4 mi
10:30 PM81 °FPassing clouds.3 mph84%29.83 "Hg4 mi
10:00 PM81 °FPassing clouds.3 mph84%29.83 "Hg5 mi
9:30 PM81 °FPassing clouds.1 mph79%29.83 "Hg5 mi
9:00 PM81 °FPassing clouds.3 mph79%29.80 "Hg5 mi
8:30 PM82 °FPassing clouds.No wind74%29.80 "Hg5 mi
8:00 PM82 °FPassing clouds.2 mph74%29.80 "Hg5 mi
Weather by CustomWeather, © 2016

See weather overviewHow to use our weather pages